Home > Weather > Bandar-Abbas > Past weeks

Flag for Iran Weather for the Past 2 Weeks in Bandar-Abbas, Iran

Now
97 °F

Clear.


Feels Like: 102 °F
Forecast: 72 / 96 °F
Wind: 14 mph from Southwest

Location: Bandarabbass

Current Time: Apr 29, 2016 at 3:46:18 PM

Latest Report: Apr 29, 2016 at 3:00 PM


Visibility: 4 mi

Pressure: 29.71 "Hg

Humidity: 39%

Dew Point: 68 °F

Location of Bandar-AbbasLocation

Historic Weather in Bandar-Abbas — Graph

°F

Bandar-Abbas Temperature Yesterday

Maximum temperature yesterday: 99 °F (at 12:30 PM)
Minimum temperature yesterday: 72 °F (at 6:30 AM)
Average temperature yesterday: 87 °F

High & Low Weather Summary for the Past Weeks

 TemperatureHumidityPressure
High99 °F (Apr 28, 12:30 PM)94% (Apr 24, 3:30 AM)29.92 "Hg (Apr 24, 3:30 AM)
Low68 °F (Apr 16, 6:30 AM)24% (Apr 28, 1:30 PM)29.65 "Hg (Apr 18, 4:30 PM)
Average81 °F65%29.78 "Hg
* Reported Apr 14 2:30 PM — Apr 29 2:30 PM, Bandar-Abbas, Weather by CustomWeather, © 2016

Note: Actual official high and low records may vary slightly from our data, if they occured in-between our weather recording intervals... More about our weather records

Advertising

Bandar-Abbas Weather History for the Previous 24 Hours

Scroll right to see more
 ConditionsComfort  
Time TempWeatherWind HumidityBarometerVisibility
2:30 PM
Fri, Apr 29
95 °FClear.14 mph34%29.74 "Hg4 mi
2:00 PM97 °FClear.14 mph32%29.74 "Hg4 mi
1:30 PM97 °FClear.14 mph32%29.74 "Hg4 mi
1:00 PM97 °FClear.9 mph30%29.77 "Hg4 mi
12:30 PM97 °FClear.9 mph30%29.77 "Hg4 mi
12:00 PM97 °FClear.12 mph34%29.77 "Hg4 mi
11:30 AM97 °FClear.12 mph34%29.77 "Hg4 mi
11:00 AM95 °FClear.7 mph34%29.77 "Hg4 mi
10:30 AM95 °FClear.7 mph34%29.77 "Hg4 mi
9:00 AM88 °FClear.5 mph49%29.77 "Hg4 mi
8:30 AM88 °FClear.5 mph49%29.77 "Hg4 mi
8:00 AM86 °FScattered clouds.5 mph55%29.74 "Hg4 mi
7:00 AM77 °FClear.5 mph54%29.74 "Hg4 mi
5:30 AM75 °FClear.5 mph54%29.71 "Hg4 mi
4:30 AM77 °FClear.7 mph47%29.71 "Hg4 mi
3:30 AM77 °FClear.5 mph54%29.71 "Hg4 mi
2:30 AM81 °FClear.5 mph42%29.71 "Hg4 mi
2:00 AM81 °FClear.7 mph45%29.71 "Hg4 mi
1:30 AM82 °FClear.12 mph42%29.71 "Hg4 mi
1:00 AM86 °FClear.5 mph38%29.71 "Hg4 mi
12:30 AM88 °FClear.9 mph38%29.74 "Hg4 mi
12:00 AM88 °FClear.9 mph43%29.74 "Hg4 mi
11:30 PM
Thu, Apr 28
88 °FClear.12 mph40%29.74 "Hg4 mi
11:00 PM90 °FClear.7 mph38%29.74 "Hg4 mi
10:30 PM88 °FClear.5 mph31%29.71 "Hg5 mi
10:00 PM88 °FClear.5 mph29%29.71 "Hg5 mi
9:30 PM90 °FClear.7 mph27%29.71 "Hg5 mi
9:00 PM90 °FClear.9 mph29%29.71 "Hg5 mi
8:30 PM90 °FClear.5 mph31%29.71 "Hg5 mi
8:00 PM90 °FClear.7 mph36%29.71 "Hg5 mi
7:30 PM91 °FSunny.9 mph34%29.68 "Hg10 mi
7:00 PM91 °FSunny.9 mph34%29.68 "Hg10 mi
6:30 PM93 °FSunny.9 mph32%29.68 "Hg10 mi
6:00 PM95 °FSunny.12 mph32%29.68 "Hg10 mi
5:30 PM95 °FSunny.12 mph30%29.71 "Hg10 mi
5:00 PM95 °FSunny.12 mph30%29.71 "Hg10 mi
4:30 PM93 °FSunny.9 mph36%29.71 "Hg10 mi
4:00 PM97 °FClear.14 mph28%29.71 "Hg5 mi
3:30 PM97 °FClear.14 mph27%29.71 "Hg5 mi
3:00 PM99 °FClear.14 mph25%29.74 "Hg4 mi
Weather by CustomWeather, © 2016

See weather overviewHow to use our weather pages